Time,TemperatureF,DewpointF,PressureIn,WindDirection,WindDirectionDegrees,WindSpeedMPH,WindSpeedGustMPH,Humidity,HourlyPrecipIn,Conditions,Clouds,dailyrainin,SoftwareType,DateUTC
2013-06-28 00:01:00,75.7,75.7,29.64,NW,312,8.1,40.1,100,16.09,,,0.00,VWS V13.01,2013-06-28 04:01:00,
2013-06-28 00:06:00,75.5,75.5,29.64,WSW,255,7.1,40.1,100,16.09,,,0.00,VWS V13.01,2013-06-28 04:06:00,
2013-06-28 00:11:00,75.2,75.2,29.64,WSW,256,5.0,40.1,100,16.09,,,0.00,VWS V13.01,2013-06-28 04:11:00,
2013-06-28 00:16:00,75.7,75.7,29.64,West,266,4.1,40.1,100,16.09,,,0.00,VWS V13.01,2013-06-28 04:16:00,
2013-06-28 00:21:00,75.5,75.5,29.64,West,281,3.9,40.1,100,16.09,,,0.00,VWS V13.01,2013-06-28 04:21:00,
2013-06-28 00:26:00,75.4,75.4,29.64,West,263,3.0,40.1,100,16.09,,,0.00,VWS V13.01,2013-06-28 04:26:00,
2013-06-28 00:31:00,75.5,75.5,29.64,SSW,212,1.6,40.1,100,16.09,,,0.00,VWS V13.01,2013-06-28 04:31:00,
2013-06-28 00:36:00,75.7,75.7,29.63,SW,225,0.0,40.1,100,16.09,,,0.00,VWS V13.01,2013-06-28 04:36:00,
2013-06-28 00:41:00,75.3,75.3,29.63,SW,219,3.6,40.1,100,16.09,,,0.00,VWS V13.01,2013-06-28 04:41:00,
2013-06-28 00:46:00,75.0,75.0,29.63,West,269,0.0,40.1,100,16.09,,,0.00,VWS V13.01,2013-06-28 04:46:00,
2013-06-28 00:51:00,75.3,75.3,29.63,NW,322,1.7,40.1,100,16.09,,,0.00,VWS V13.01,2013-06-28 04:51:00,
2013-06-28 00:56:00,75.4,75.4,29.63,WNW,287,2.8,40.1,100,16.09,,,0.00,VWS V13.01,2013-06-28 04:56:00,
2013-06-28 01:00:00,74.9,73.7,29.57,WNW,292,0.0,40.1,96,16.11,,,0.00,VWS V13.01,2013-06-28 05:00:00,
2013-06-28 01:01:00,75.6,75.6,29.63,NW,307,4.7,40.1,100,16.09,,,0.00,VWS V13.01,2013-06-28 05:01:00,
2013-06-28 01:06:00,75.2,75.2,29.63,West,278,0.0,40.1,100,16.09,,,0.00,VWS V13.01,2013-06-28 05:06:00,
2013-06-28 01:11:00,75.4,75.4,29.63,West,266,1.2,40.1,100,16.09,,,0.00,VWS V13.01,2013-06-28 05:11:00,
2013-06-28 01:16:00,75.6,75.6,29.63,SSW,208,1.3,40.1,100,16.09,,,0.00,VWS V13.01,2013-06-28 05:16:00,
2013-06-28 01:21:00,75.4,75.3,29.63,WNW,302,0.9,40.1,100,16.09,,,0.00,VWS V13.01,2013-06-28 05:21:00,
2013-06-28 01:26:00,75.5,75.4,29.62,West,266,2.6,40.1,100,16.09,,,0.00,VWS V13.01,2013-06-28 05:26:00,
2013-06-28 01:31:00,75.7,75.5,29.62,SSW,204,1.3,40.1,99,16.09,,,0.00,VWS V13.01,2013-06-28 05:31:00,
2013-06-28 01:36:00,75.5,75.3,29.62,NW,312,3.7,40.1,99,16.09,,,0.00,VWS V13.01,2013-06-28 05:36:00,
2013-06-28 01:41:00,75.9,75.6,29.61,NW,311,2.2,40.1,99,16.09,,,0.00,VWS V13.01,2013-06-28 05:41:00,
2013-06-28 01:46:00,75.9,75.6,29.61,West,273,0.0,40.1,99,16.09,,,0.00,VWS V13.01,2013-06-28 05:46:00,
2013-06-28 01:51:00,75.9,75.6,29.62,WSW,248,4.0,40.1,99,16.09,,,0.00,VWS V13.01,2013-06-28 05:51:00,
2013-06-28 01:56:00,75.8,75.4,29.62,SW,221,3.3,40.1,99,16.09,,,0.00,VWS V13.01,2013-06-28 05:56:00,
2013-06-28 02:01:00,75.6,75.2,29.62,WSW,248,1.7,40.1,98,16.09,,,0.00,VWS V13.01,2013-06-28 06:01:00,
2013-06-28 02:06:00,75.3,74.9,29.62,WNW,294,1.1,40.1,99,16.09,,,0.00,VWS V13.01,2013-06-28 06:06:00,
2013-06-28 02:11:00,75.2,74.8,29.61,SSW,197,3.3,40.1,99,16.09,,,0.00,VWS V13.01,2013-06-28 06:11:00,
2013-06-28 02:16:00,75.0,74.7,29.62,SSE,160,0.0,40.1,99,16.09,,,0.00,VWS V13.01,2013-06-28 06:16:00,
2013-06-28 02:21:00,74.9,74.6,29.62,SE,131,0.0,40.1,99,16.09,,,0.00,VWS V13.01,2013-06-28 06:21:00,
2013-06-28 02:26:00,74.7,74.4,29.62,WNW,301,0.0,40.1,99,16.09,,,0.00,VWS V13.01,2013-06-28 06:26:00,
2013-06-28 02:31:00,74.7,74.5,29.61,South,176,1.7,40.1,99,16.09,,,0.00,VWS V13.01,2013-06-28 06:31:00,
2013-06-28 02:36:00,74.7,74.6,29.61,SW,229,0.0,40.1,100,16.09,,,0.00,VWS V13.01,2013-06-28 06:36:00,
2013-06-28 02:41:00,74.6,74.5,29.61,SSW,193,0.0,40.1,100,16.09,,,0.00,VWS V13.01,2013-06-28 06:41:00,
2013-06-28 02:46:00,74.6,74.6,29.61,SSW,193,0.0,40.1,100,16.09,,,0.00,VWS V13.01,2013-06-28 06:46:00,
2013-06-28 02:51:00,74.7,74.7,29.61,SW,215,0.0,40.1,100,16.09,,,0.00,VWS V13.01,2013-06-28 06:51:00,
2013-06-28 02:56:00,75.1,75.1,29.61,West,274,3.9,40.1,100,16.09,,,0.00,VWS V13.01,2013-06-28 06:56:00,
2013-06-28 03:01:00,75.1,75.1,29.61,WNW,287,3.2,40.1,100,16.09,,,0.00,VWS V13.01,2013-06-28 07:01:00,
2013-06-28 03:06:00,75.2,75.2,29.60,WNW,291,0.0,40.1,100,16.09,,,0.00,VWS V13.01,2013-06-28 07:06:00,
2013-06-28 03:11:00,75.7,75.7,29.60,West,280,3.0,40.1,100,16.09,,,0.00,VWS V13.01,2013-06-28 07:11:00,
2013-06-28 03:15:00,75.4,75.4,29.60,NW,308,2.9,40.1,100,16.09,,,0.00,VWS V13.01,2013-06-28 07:15:00,
2013-06-28 03:20:00,75.8,75.8,29.60,WNW,295,5.6,40.1,100,16.09,,,0.00,VWS V13.01,2013-06-28 07:20:00,
2013-06-28 03:25:00,75.7,75.6,29.60,WSW,239,2.1,40.1,100,16.09,,,0.00,VWS V13.01,2013-06-28 07:25:00,
2013-06-28 03:30:00,75.6,75.5,29.60,WSW,257,1.3,40.1,100,16.09,,,0.00,VWS V13.01,2013-06-28 07:30:00,
2013-06-28 03:35:00,75.7,75.6,29.60,WNW,290,3.7,40.1,100,16.09,,,0.00,VWS V13.01,2013-06-28 07:35:00,
2013-06-28 03:40:00,75.8,75.7,29.60,West,281,3.2,40.1,100,16.09,,,0.00,VWS V13.01,2013-06-28 07:40:00,
2013-06-28 03:45:00,75.7,75.6,29.60,WNW,302,4.0,40.1,100,16.09,,,0.00,VWS V13.01,2013-06-28 07:45:00,
2013-06-28 03:50:00,75.5,75.4,29.60,SW,231,3.1,40.1,100,16.09,,,0.00,VWS V13.01,2013-06-28 07:50:00,
2013-06-28 03:55:00,75.4,75.3,29.60,WNW,284,3.6,40.1,100,16.09,,,0.00,VWS V13.01,2013-06-28 07:55:00,
2013-06-28 04:00:00,75.5,75.4,29.59,West,264,2.3,40.1,100,16.09,,,0.00,VWS V13.01,2013-06-28 08:00:00,
2013-06-28 04:05:00,75.6,75.5,29.60,West,270,2.6,40.1,100,16.09,,,0.00,VWS V13.01,2013-06-28 08:05:00,
2013-06-28 04:10:00,75.3,75.2,29.59,WSW,255,2.0,40.1,100,16.09,,,0.00,VWS V13.01,2013-06-28 08:10:00,
2013-06-28 04:15:00,75.4,75.3,29.59,West,280,5.0,40.1,100,16.09,,,0.00,VWS V13.01,2013-06-28 08:15:00,
2013-06-28 04:20:00,75.4,75.3,29.59,West,267,3.4,40.1,100,16.09,,,0.00,VWS V13.01,2013-06-28 08:20:00,
2013-06-28 04:21:00,75.7,75.6,29.59,WSW,253,2.0,40.1,100,16.09,,,0.00,VWS V13.01,2013-06-28 08:21:00,
2013-06-28 04:26:00,75.3,75.2,29.59,West,262,2.2,40.1,100,16.09,,,0.00,VWS V13.01,2013-06-28 08:26:00,
2013-06-28 04:31:00,75.1,75.1,29.59,West,271,2.8,40.1,100,16.09,,,0.00,VWS V13.01,2013-06-28 08:31:00,
2013-06-28 04:36:00,75.2,75.2,29.58,West,277,3.4,40.1,100,16.09,,,0.00,VWS V13.01,2013-06-28 08:36:00,
2013-06-28 04:41:00,75.7,75.7,29.58,WSW,252,0.0,40.1,100,16.09,,,0.00,VWS V13.01,2013-06-28 08:41:00,
2013-06-28 04:46:00,75.4,75.3,29.59,SSW,200,2.5,40.1,100,16.09,,,0.00,VWS V13.01,2013-06-28 08:46:00,
2013-06-28 04:51:00,75.2,75.2,29.59,West,263,2.8,40.1,100,16.09,,,0.00,VWS V13.01,2013-06-28 08:51:00,
2013-06-28 04:56:00,75.3,75.2,29.59,West,277,4.1,40.1,100,16.09,,,0.00,VWS V13.01,2013-06-28 08:56:00,
2013-06-28 05:01:00,75.1,75.1,29.59,West,277,2.9,40.1,100,16.09,,,0.00,VWS V13.01,2013-06-28 09:01:00,
2013-06-28 05:06:00,75.0,75.0,29.59,WNW,285,4.3,40.1,100,16.09,,,0.00,VWS V13.01,2013-06-28 09:06:00,
2013-06-28 05:11:00,74.9,74.8,29.59,WSW,245,0.0,40.1,100,16.09,,,0.00,VWS V13.01,2013-06-28 09:11:00,
2013-06-28 05:16:00,75.2,75.2,29.59,NW,305,2.5,40.1,100,16.09,,,0.00,VWS V13.01,2013-06-28 09:16:00,
2013-06-28 05:21:00,75.0,74.9,29.59,WNW,302,1.7,40.1,100,16.09,,,0.00,VWS V13.01,2013-06-28 09:21:00,
2013-06-28 05:26:00,75.1,75.0,29.59,NW,309,2.8,40.1,100,16.09,,,0.00,VWS V13.01,2013-06-28 09:26:00,
2013-06-28 05:31:00,75.1,75.1,29.59,West,271,1.2,40.1,100,16.09,,,0.00,VWS V13.01,2013-06-28 09:31:00,
2013-06-28 05:36:00,75.2,75.2,29.59,West,260,0.7,40.1,100,16.09,,,0.00,VWS V13.01,2013-06-28 09:36:00,
2013-06-28 05:41:00,74.8,74.8,29.60,WNW,283,1.4,40.1,100,16.09,,,0.00,VWS V13.01,2013-06-28 09:41:00,
2013-06-28 05:46:00,75.0,75.0,29.59,West,270,3.3,40.1,100,16.09,,,0.00,VWS V13.01,2013-06-28 09:46:00,
2013-06-28 05:50:00,75.2,75.2,29.59,WNW,288,4.1,40.1,100,16.09,,,0.00,VWS V13.01,2013-06-28 09:50:00,
2013-06-28 05:55:00,74.9,74.9,29.59,West,276,3.7,40.1,100,16.09,,,0.00,VWS V13.01,2013-06-28 09:55:00,
2013-06-28 06:00:00,74.8,74.8,29.59,NW,307,2.7,40.1,100,16.09,,,0.00,VWS V13.01,2013-06-28 10:00:00,
2013-06-28 06:05:00,74.9,74.9,29.59,WNW,290,4.4,40.1,100,16.09,,,0.00,VWS V13.01,2013-06-28 10:05:00,
2013-06-28 06:10:00,74.8,74.8,29.59,WNW,284,0.0,40.1,100,16.09,,,0.00,VWS V13.01,2013-06-28 10:10:00,
2013-06-28 06:15:00,74.8,74.8,29.60,South,174,1.4,40.1,100,16.09,,,0.00,VWS V13.01,2013-06-28 10:15:00,
2013-06-28 06:20:00,74.8,74.8,29.60,WNW,284,5.5,40.1,100,16.09,,,0.00,VWS V13.01,2013-06-28 10:20:00,
2013-06-28 06:25:00,74.7,74.7,29.60,WNW,300,1.8,40.1,100,16.09,,,0.00,VWS V13.01,2013-06-28 10:25:00,
2013-06-28 06:30:00,75.0,75.0,29.60,SW,224,0.8,40.1,100,16.09,,,0.00,VWS V13.01,2013-06-28 10:30:00,
2013-06-28 06:35:00,74.9,74.9,29.60,West,259,2.4,40.1,100,16.09,,,0.00,VWS V13.01,2013-06-28 10:35:00,
2013-06-28 06:40:00,74.9,74.9,29.60,West,271,2.4,40.1,100,16.09,,,0.00,VWS V13.01,2013-06-28 10:40:00,
2013-06-28 06:45:00,74.9,74.9,29.60,West,266,3.4,40.1,100,16.09,,,0.00,VWS V13.01,2013-06-28 10:45:00,
2013-06-28 06:50:00,74.8,74.8,29.60,WNW,298,3.2,40.1,100,16.09,,,0.00,VWS V13.01,2013-06-28 10:50:00,
2013-06-28 06:55:00,74.8,74.8,29.61,NW,316,4.1,40.1,100,16.09,,,0.00,VWS V13.01,2013-06-28 10:55:00,
2013-06-28 07:00:00,74.6,74.6,29.61,WNW,285,4.4,40.1,100,16.09,,,0.00,VWS V13.01,2013-06-28 11:00:00,
2013-06-28 07:05:00,74.7,74.7,29.60,West,267,2.4,40.1,100,16.09,,,0.00,VWS V13.01,2013-06-28 11:05:00,
2013-06-28 07:10:00,75.8,75.7,29.60,West,274,3.3,40.1,100,16.09,,,0.00,VWS V13.01,2013-06-28 11:10:00,
2013-06-28 07:15:00,76.4,76.1,29.61,NW,323,5.3,40.1,99,16.09,,,0.00,VWS V13.01,2013-06-28 11:15:00,
2013-06-28 07:20:00,77.1,76.7,29.61,SW,221,3.3,40.1,98,16.09,,,0.00,VWS V13.01,2013-06-28 11:20:00,
2013-06-28 07:25:00,77.2,76.8,29.61,WNW,294,1.9,40.1,98,16.09,,,0.00,VWS V13.01,2013-06-28 11:25:00,
2013-06-28 07:30:00,77.3,76.8,29.60,West,260,6.5,40.1,98,16.09,,,0.00,VWS V13.01,2013-06-28 11:30:00,
2013-06-28 07:35:00,77.8,77.2,29.60,WNW,295,3.5,40.1,98,16.09,,,0.00,VWS V13.01,2013-06-28 11:35:00,
2013-06-28 07:40:00,78.0,77.3,29.60,NW,308,4.2,40.1,98,16.09,,,0.00,VWS V13.01,2013-06-28 11:40:00,
2013-06-28 07:45:00,78.4,77.6,29.60,NW,312,5.8,40.1,97,16.09,,,0.00,VWS V13.01,2013-06-28 11:45:00,
2013-06-28 07:50:00,78.8,77.9,29.60,West,270,3.2,40.1,97,16.09,,,0.00,VWS V13.01,2013-06-28 11:50:00,
2013-06-28 07:55:00,79.1,78.1,29.60,NW,305,6.3,40.1,97,16.09,,,0.00,VWS V13.01,2013-06-28 11:55:00,
2013-06-28 08:00:00,78.9,77.8,29.60,NW,319,1.6,40.1,96,16.09,,,0.00,VWS V13.01,2013-06-28 12:00:00,
2013-06-28 08:05:00,79.3,78.1,29.60,NW,307,2.7,40.1,96,16.09,,,0.00,VWS V13.01,2013-06-28 12:05:00,
2013-06-28 08:10:00,79.3,78.0,29.60,WNW,285,6.6,40.1,96,16.09,,,0.00,VWS V13.01,2013-06-28 12:10:00,
2013-06-28 08:15:00,79.7,78.3,29.59,West,277,2.8,40.1,96,16.09,,,0.00,VWS V13.01,2013-06-28 12:15:00,
2013-06-28 08:20:00,79.9,78.5,29.59,West,276,3.1,40.1,96,16.09,,,0.00,VWS V13.01,2013-06-28 12:20:00,
2013-06-28 08:25:00,80.1,78.5,29.59,WNW,294,5.3,40.1,95,16.09,,,0.00,VWS V13.01,2013-06-28 12:25:00,
2013-06-28 08:30:00,80.3,78.6,29.59,NW,307,6.0,40.1,94,16.09,,,0.00,VWS V13.01,2013-06-28 12:30:00,
2013-06-28 08:35:00,80.4,78.6,29.59,WNW,285,5.2,40.1,94,16.09,,,0.00,VWS V13.01,2013-06-28 12:35:00,
2013-06-28 08:40:00,80.4,78.3,29.59,West,266,5.5,40.1,93,16.09,,,0.00,VWS V13.01,2013-06-28 12:40:00,
2013-06-28 08:45:00,80.1,78.0,29.59,WSW,253,5.9,40.1,93,16.09,,,0.00,VWS V13.01,2013-06-28 12:45:00,
2013-06-28 08:50:00,80.1,78.2,29.59,West,263,2.9,40.1,94,16.09,,,0.00,VWS V13.01,2013-06-28 12:50:00,
2013-06-28 08:55:00,80.3,78.3,29.58,West,273,6.7,40.1,94,16.09,,,0.00,VWS V13.01,2013-06-28 12:55:00,
2013-06-28 09:00:00,80.3,78.2,29.58,WNW,283,7.5,40.1,93,16.09,,,0.00,VWS V13.01,2013-06-28 13:00:00,
2013-06-28 09:05:00,79.9,77.8,29.58,WNW,290,5.3,40.1,93,16.09,,,0.00,VWS V13.01,2013-06-28 13:05:00,
2013-06-28 09:10:00,80.3,78.3,29.58,WNW,292,4.4,40.1,94,16.09,,,0.00,VWS V13.01,2013-06-28 13:10:00,
2013-06-28 09:15:00,80.8,78.2,29.58,West,281,6.0,40.1,92,16.09,,,0.00,VWS V13.01,2013-06-28 13:15:00,
2013-06-28 09:20:00,81.1,78.0,29.58,WNW,290,6.3,40.1,90,16.09,,,0.00,VWS V13.01,2013-06-28 13:20:00,
2013-06-28 09:25:00,81.8,78.2,29.58,NW,325,6.0,40.1,89,16.09,,,0.00,VWS V13.01,2013-06-28 13:25:00,
2013-06-28 09:30:00,81.5,77.6,29.57,NW,312,4.8,40.1,88,16.09,,,0.00,VWS V13.01,2013-06-28 13:30:00,
2013-06-28 09:35:00,81.4,77.8,29.57,West,280,1.7,40.1,89,16.09,,,0.00,VWS V13.01,2013-06-28 13:35:00,
2013-06-28 09:40:00,81.9,78.1,29.57,NW,311,5.8,40.1,88,16.09,,,0.00,VWS V13.01,2013-06-28 13:40:00,
2013-06-28 09:45:00,82.3,78.3,29.57,West,281,1.6,40.1,88,16.09,,,0.00,VWS V13.01,2013-06-28 13:45:00,
2013-06-28 09:50:00,82.6,78.1,29.57,West,280,6.1,40.1,86,16.09,,,0.00,VWS V13.01,2013-06-28 13:50:00,
2013-06-28 09:55:00,82.6,78.2,29.57,WNW,301,3.6,40.1,87,16.09,,,0.00,VWS V13.01,2013-06-28 13:55:00,
2013-06-28 10:00:00,82.8,78.4,29.57,WNW,287,4.8,40.1,87,16.09,,,0.00,VWS V13.01,2013-06-28 14:00:00,
2013-06-28 10:05:00,82.3,77.9,29.57,WNW,284,5.3,40.1,87,16.09,,,0.00,VWS V13.01,2013-06-28 14:05:00,
2013-06-28 10:10:00,82.1,77.7,29.57,WNW,285,3.5,40.1,86,16.09,,,0.00,VWS V13.01,2013-06-28 14:10:00,
2013-06-28 10:15:00,82.5,77.8,29.57,NW,304,4.8,40.1,86,16.09,,,0.00,VWS V13.01,2013-06-28 14:15:00,
2013-06-28 10:20:00,82.4,77.7,29.57,WNW,283,4.6,40.1,86,16.09,,,0.00,VWS V13.01,2013-06-28 14:20:00,
2013-06-28 10:25:00,82.2,77.8,29.57,WNW,287,5.8,40.1,87,16.09,,,0.00,VWS V13.01,2013-06-28 14:25:00,
2013-06-28 10:30:00,82.4,77.9,29.57,WNW,287,7.0,40.1,86,16.09,,,0.00,VWS V13.01,2013-06-28 14:30:00,
2013-06-28 10:35:00,82.4,77.4,29.57,West,276,8.2,40.1,85,16.09,,,0.00,VWS V13.01,2013-06-28 14:35:00,
2013-06-28 10:40:00,82.4,77.2,29.57,NW,309,4.0,40.1,84,16.09,,,0.00,VWS V13.01,2013-06-28 14:40:00,
2013-06-28 10:45:00,82.5,77.4,29.57,WNW,301,5.2,40.1,85,16.09,,,0.00,VWS V13.01,2013-06-28 14:45:00,
2013-06-28 10:50:00,82.4,77.4,29.57,WNW,288,3.7,40.1,85,16.09,,,0.00,VWS V13.01,2013-06-28 14:50:00,
2013-06-28 10:55:00,82.4,77.6,29.57,WNW,284,5.3,40.1,85,16.09,,,0.00,VWS V13.01,2013-06-28 14:55:00,
2013-06-28 11:00:00,82.6,77.6,29.57,SW,236,4.5,40.1,85,16.09,,,0.00,VWS V13.01,2013-06-28 15:00:00,
2013-06-28 11:05:00,83.4,78.2,29.57,WSW,238,3.5,40.1,84,16.09,,,0.00,VWS V13.01,2013-06-28 15:05:00,
2013-06-28 11:10:00,83.2,78.0,29.58,NW,308,7.5,40.1,84,16.09,,,0.00,VWS V13.01,2013-06-28 15:10:00,
2013-06-28 11:15:00,83.1,77.4,29.58,NW,312,6.5,40.1,83,16.09,,,0.00,VWS V13.01,2013-06-28 15:15:00,
2013-06-28 11:20:00,82.8,77.2,29.58,NW,312,4.7,40.1,83,16.09,,,0.00,VWS V13.01,2013-06-28 15:20:00,
2013-06-28 11:25:00,83.3,77.9,29.58,WNW,291,5.8,40.1,84,16.09,,,0.00,VWS V13.01,2013-06-28 15:25:00,
2013-06-28 11:30:00,83.5,77.8,29.58,NW,323,9.9,40.1,83,16.09,,,0.00,VWS V13.01,2013-06-28 15:30:00,
2013-06-28 11:35:00,83.6,77.8,29.59,WNW,300,5.0,40.1,83,16.09,,,0.00,VWS V13.01,2013-06-28 15:35:00,
2013-06-28 11:40:00,83.8,78.1,29.58,WNW,283,1.9,40.1,83,16.09,,,0.00,VWS V13.01,2013-06-28 15:40:00,
2013-06-28 11:45:00,83.9,78.3,29.58,NW,314,6.8,40.1,83,16.09,,,0.00,VWS V13.01,2013-06-28 15:45:00,
2013-06-28 11:50:00,84.4,78.1,29.59,West,260,8.2,40.1,81,16.09,,,0.00,VWS V13.01,2013-06-28 15:50:00,
2013-06-28 11:55:00,84.8,78.3,29.59,WNW,288,7.1,40.1,81,16.09,,,0.00,VWS V13.01,2013-06-28 15:55:00,
2013-06-28 12:00:00,84.2,77.9,29.59,West,259,4.9,40.1,82,16.09,,,0.00,VWS V13.01,2013-06-28 16:00:00,
2013-06-28 12:05:00,83.9,77.8,29.59,NW,314,2.3,40.1,82,16.09,,,0.00,VWS V13.01,2013-06-28 16:05:00,
2013-06-28 12:10:00,84.0,77.7,29.58,WSW,249,4.1,40.1,82,16.09,,,0.00,VWS V13.01,2013-06-28 16:10:00,
2013-06-28 12:15:00,84.4,78.1,29.58,WNW,291,1.9,40.1,81,16.09,,,0.00,VWS V13.01,2013-06-28 16:15:00,
2013-06-28 12:20:00,84.4,78.0,29.58,WNW,297,5.5,40.1,81,16.09,,,0.00,VWS V13.01,2013-06-28 16:20:00,
2013-06-28 12:25:00,84.5,77.8,29.59,WNW,302,6.0,40.1,80,16.09,,,0.00,VWS V13.01,2013-06-28 16:25:00,
2013-06-28 12:30:00,84.0,77.4,29.59,NW,319,4.0,40.1,81,16.09,,,0.00,VWS V13.01,2013-06-28 16:30:00,
2013-06-28 12:35:00,84.1,77.8,29.59,WNW,283,2.4,40.1,81,16.09,,,0.00,VWS V13.01,2013-06-28 16:35:00,
2013-06-28 12:40:00,84.5,78.2,29.59,WNW,290,4.7,40.1,82,16.09,,,0.00,VWS V13.01,2013-06-28 16:40:00,
2013-06-28 12:45:00,85.2,78.3,29.59,NW,318,5.4,40.1,80,16.09,,,0.00,VWS V13.01,2013-06-28 16:45:00,
2013-06-28 12:50:00,85.1,78.3,29.58,WNW,291,7.1,40.1,80,16.09,,,0.00,VWS V13.01,2013-06-28 16:50:00,
2013-06-28 12:55:00,84.6,78.1,29.58,WNW,302,3.2,40.1,81,16.09,,,0.00,VWS V13.01,2013-06-28 16:55:00,
2013-06-28 13:00:00,84.4,78.3,29.58,South,190,0.0,40.1,82,16.09,,,0.00,VWS V13.01,2013-06-28 17:00:00,
2013-06-28 13:05:00,84.2,78.2,29.58,WSW,252,3.7,40.1,82,16.09,,,0.00,VWS V13.01,2013-06-28 17:05:00,
2013-06-28 13:10:00,84.4,78.3,29.58,West,263,2.4,40.1,82,16.09,,,0.00,VWS V13.01,2013-06-28 17:10:00,
2013-06-28 13:15:00,84.7,77.8,29.58,WNW,297,5.5,40.1,80,16.09,,,0.00,VWS V13.01,2013-06-28 17:15:00,
2013-06-28 13:20:00,85.1,77.9,29.58,West,274,3.0,40.1,79,16.09,,,0.00,VWS V13.01,2013-06-28 17:20:00,
2013-06-28 13:25:00,85.5,78.3,29.58,NW,304,3.7,40.1,79,16.09,,,0.00,VWS V13.01,2013-06-28 17:25:00,
2013-06-28 13:30:00,86.1,78.5,29.58,NNW,339,3.0,40.1,78,16.09,,,0.00,VWS V13.01,2013-06-28 17:30:00,
2013-06-28 13:35:00,86.3,78.5,29.58,WNW,298,5.7,40.1,78,16.09,,,0.00,VWS V13.01,2013-06-28 17:35:00,
2013-06-28 13:40:00,85.9,78.1,29.58,West,267,5.7,40.1,78,16.09,,,0.00,VWS V13.01,2013-06-28 17:40:00,
2013-06-28 13:45:00,86.0,78.0,29.58,NW,321,2.9,40.1,77,16.09,,,0.00,VWS V13.01,2013-06-28 17:45:00,
2013-06-28 13:50:00,86.1,77.8,29.57,NW,308,4.5,40.1,76,16.09,,,0.00,VWS V13.01,2013-06-28 17:50:00,
2013-06-28 13:55:00,86.3,78.0,29.57,WNW,298,4.5,40.1,76,16.09,,,0.00,VWS V13.01,2013-06-28 17:55:00,
2013-06-28 14:00:00,86.4,78.5,29.57,NW,304,3.4,40.1,78,16.09,,,0.00,VWS V13.01,2013-06-28 18:00:00,
2013-06-28 14:05:00,86.6,78.4,29.56,WNW,300,6.9,40.1,77,16.09,,,0.00,VWS V13.01,2013-06-28 18:05:00,
2013-06-28 14:10:00,86.7,78.3,29.56,West,269,6.0,40.1,76,16.09,,,0.00,VWS V13.01,2013-06-28 18:10:00,
2013-06-28 14:15:00,87.1,78.1,29.56,WNW,287,3.7,40.1,75,16.09,,,0.00,VWS V13.01,2013-06-28 18:15:00,
2013-06-28 14:20:00,87.1,78.0,29.56,WNW,287,6.0,40.1,74,16.09,,,0.00,VWS V13.01,2013-06-28 18:20:00,
2013-06-28 14:25:00,87.3,78.5,29.56,NW,304,1.0,40.1,75,16.09,,,0.00,VWS V13.01,2013-06-28 18:25:00,
2013-06-28 14:30:00,86.5,77.6,29.56,West,270,6.5,40.1,75,16.09,,,0.00,VWS V13.01,2013-06-28 18:30:00,
2013-06-28 14:35:00,86.6,77.8,29.56,WNW,288,5.1,40.1,75,16.09,,,0.00,VWS V13.01,2013-06-28 18:35:00,
2013-06-28 14:40:00,87.2,78.2,29.56,NW,307,5.8,40.1,75,16.09,,,0.00,VWS V13.01,2013-06-28 18:40:00,
2013-06-28 14:45:00,87.2,77.7,29.56,WNW,298,5.8,40.1,73,16.09,,,0.00,VWS V13.01,2013-06-28 18:45:00,
2013-06-28 14:50:00,87.6,78.5,29.56,WNW,297,8.9,40.1,74,16.09,,,0.00,VWS V13.01,2013-06-28 18:50:00,
2013-06-28 14:55:00,87.5,77.4,29.56,West,259,1.0,40.1,72,16.09,,,0.00,VWS V13.01,2013-06-28 18:55:00,
2013-06-28 15:00:00,87.8,77.9,29.56,West,278,6.2,40.1,73,16.09,,,0.00,VWS V13.01,2013-06-28 19:00:00,
2013-06-28 15:05:00,87.4,77.7,29.56,West,276,4.5,40.1,73,16.09,,,0.00,VWS V13.01,2013-06-28 19:05:00,
2013-06-28 15:09:00,87.7,77.9,29.56,West,274,2.7,40.1,73,16.09,,,0.00,VWS V13.01,2013-06-28 19:09:00,
2013-06-28 15:14:00,87.7,77.4,29.56,WNW,290,1.4,40.1,72,16.09,,,0.00,VWS V13.01,2013-06-28 19:14:00,
2013-06-28 15:19:00,87.5,77.5,29.56,WNW,301,5.7,40.1,72,16.09,,,0.00,VWS V13.01,2013-06-28 19:19:00,
2013-06-28 15:24:00,87.5,77.5,29.55,WNW,297,8.6,40.1,72,16.09,,,0.00,VWS V13.01,2013-06-28 19:24:00,
2013-06-28 15:29:00,87.4,77.2,29.55,WNW,294,3.4,40.1,72,16.09,,,0.00,VWS V13.01,2013-06-28 19:29:00,
2013-06-28 15:34:00,87.3,77.3,29.54,WNW,295,6.7,40.1,72,16.09,,,0.00,VWS V13.01,2013-06-28 19:34:00,
2013-06-28 15:39:00,87.0,77.4,29.54,WNW,288,3.7,40.1,73,16.09,,,0.00,VWS V13.01,2013-06-28 19:39:00,
2013-06-28 15:44:00,87.1,76.7,29.54,West,271,4.6,40.1,71,16.09,,,0.00,VWS V13.01,2013-06-28 19:44:00,
2013-06-28 15:49:00,87.0,77.4,29.54,West,277,1.9,40.1,73,16.09,,,0.00,VWS V13.01,2013-06-28 19:49:00,
2013-06-28 15:54:00,87.4,77.3,29.53,WNW,298,3.5,40.1,72,16.09,,,0.00,VWS V13.01,2013-06-28 19:54:00,
2013-06-28 15:59:00,87.4,77.3,29.53,WNW,285,7.1,40.1,72,16.09,,,0.00,VWS V13.01,2013-06-28 19:59:00,
2013-06-28 16:04:00,87.3,77.2,29.53,WSW,252,5.7,40.1,72,16.09,,,0.00,VWS V13.01,2013-06-28 20:04:00,
2013-06-28 16:09:00,87.3,77.3,29.53,WNW,284,2.9,40.1,72,16.09,,,0.00,VWS V13.01,2013-06-28 20:09:00,
2013-06-28 16:14:00,87.4,77.3,29.53,South,188,2.6,40.1,72,16.09,,,0.00,VWS V13.01,2013-06-28 20:14:00,
2013-06-28 16:19:00,87.3,77.1,29.53,WSW,250,6.7,40.1,72,16.09,,,0.00,VWS V13.01,2013-06-28 20:19:00,
2013-06-28 16:24:00,86.9,76.6,29.53,NW,321,7.3,40.1,72,16.09,,,0.00,VWS V13.01,2013-06-28 20:24:00,
2013-06-28 16:29:00,86.8,76.3,29.53,West,263,2.9,40.1,71,16.09,,,0.00,VWS V13.01,2013-06-28 20:29:00,
2013-06-28 16:34:00,86.8,77.4,29.53,South,169,1.9,40.1,74,16.09,,,0.00,VWS V13.01,2013-06-28 20:34:00,
2013-06-28 16:39:00,86.4,78.5,29.54,SSE,156,1.6,40.1,77,16.09,,,0.00,VWS V13.01,2013-06-28 20:39:00,
2013-06-28 16:44:00,85.5,78.1,29.54,SE,145,0.0,40.1,79,16.09,,,0.00,VWS V13.01,2013-06-28 20:44:00,
2013-06-28 16:49:00,85.3,78.5,29.54,East,86,0.0,40.1,80,16.09,,,0.00,VWS V13.01,2013-06-28 20:49:00,
2013-06-28 16:54:00,85.0,78.6,29.54,SSW,194,3.0,40.1,81,16.09,,,0.00,VWS V13.01,2013-06-28 20:54:00,
2013-06-28 16:59:00,84.6,78.3,29.54,South,187,0.0,40.1,82,16.09,,,0.00,VWS V13.01,2013-06-28 20:59:00,
2013-06-28 17:04:00,84.5,78.6,29.54,SSE,166,1.6,40.1,83,16.09,,,0.00,VWS V13.01,2013-06-28 21:04:00,
2013-06-28 17:09:00,84.2,78.6,29.54,SW,218,5.0,40.1,83,16.09,,,0.00,VWS V13.01,2013-06-28 21:09:00,
2013-06-28 17:14:00,83.6,78.3,29.54,WSW,239,1.6,40.1,84,16.09,,,0.00,VWS V13.01,2013-06-28 21:14:00,
2013-06-28 17:19:00,83.5,78.5,29.54,SSE,155,0.6,40.1,85,16.09,,,0.00,VWS V13.01,2013-06-28 21:19:00,
2013-06-28 17:24:00,83.2,78.3,29.54,NE,44,0.0,40.1,85,16.09,,,0.00,VWS V13.01,2013-06-28 21:24:00,
2013-06-28 17:29:00,83.0,78.3,29.54,SSW,194,2.2,40.1,86,16.09,,,0.00,VWS V13.01,2013-06-28 21:29:00,
2013-06-28 17:34:00,83.1,78.5,29.54,WSW,238,4.1,40.1,86,16.09,,,0.00,VWS V13.01,2013-06-28 21:34:00,
2013-06-28 17:39:00,82.7,78.2,29.54,SSE,149,2.2,40.1,86,16.09,,,0.00,VWS V13.01,2013-06-28 21:39:00,
2013-06-28 17:44:00,82.2,77.7,29.54,SE,145,2.8,40.1,86,16.09,,,0.00,VWS V13.01,2013-06-28 21:44:00,
2013-06-28 17:49:00,81.4,76.9,29.55,NW,322,1.5,40.1,86,16.09,,,0.00,VWS V13.01,2013-06-28 21:49:00,
2013-06-28 17:54:00,80.3,76.2,29.55,SSW,208,4.4,40.1,87,16.09,,,0.00,VWS V13.01,2013-06-28 21:54:00,
2013-06-28 17:59:00,79.5,76.2,29.55,West,266,1.8,40.1,90,16.09,,,0.00,VWS V13.01,2013-06-28 21:59:00,
2013-06-28 18:04:00,78.9,76.2,29.54,West,277,1.1,40.1,91,16.09,,,0.00,VWS V13.01,2013-06-28 22:04:00,
2013-06-28 18:09:00,78.4,76.0,29.54,East,83,0.0,40.1,92,16.09,,,0.00,VWS V13.01,2013-06-28 22:09:00,
2013-06-28 18:14:00,78.3,76.2,29.54,WSW,243,2.4,40.1,93,16.09,,,0.00,VWS V13.01,2013-06-28 22:14:00,
2013-06-28 18:19:00,77.9,76.2,29.53,South,186,0.0,40.1,94,16.09,,,0.00,VWS V13.01,2013-06-28 22:19:00,
2013-06-28 18:24:00,77.8,76.2,29.54,WSW,246,4.4,40.1,95,16.09,,,0.00,VWS V13.01,2013-06-28 22:24:00,
2013-06-28 18:29:00,77.9,76.4,29.55,West,277,5.8,40.1,95,16.09,,,0.00,VWS V13.01,2013-06-28 22:29:00,
2013-06-28 18:34:00,78.2,76.8,29.56,NE,44,0.8,40.1,96,16.09,,,0.00,VWS V13.01,2013-06-28 22:34:00,
2013-06-28 18:39:00,78.3,77.0,29.55,NNW,342,0.0,40.1,96,16.09,,,0.00,VWS V13.01,2013-06-28 22:39:00,
2013-06-28 18:44:00,78.8,77.5,29.55,WSW,239,3.4,40.1,96,16.09,,,0.00,VWS V13.01,2013-06-28 22:44:00,
2013-06-28 18:49:00,78.9,77.6,29.55,WNW,290,1.2,40.1,96,16.09,,,0.00,VWS V13.01,2013-06-28 22:49:00,
2013-06-28 18:54:00,79.3,78.0,29.55,West,276,1.6,40.1,96,16.09,,,0.00,VWS V13.01,2013-06-28 22:54:00,
2013-06-28 18:59:00,79.5,78.2,29.55,WSW,242,0.0,40.1,96,16.09,,,0.00,VWS V13.01,2013-06-28 22:59:00,
2013-06-28 19:04:00,80.1,78.7,29.54,West,266,0.7,40.1,96,16.09,,,0.00,VWS V13.01,2013-06-28 23:04:00,
2013-06-28 19:09:00,80.3,78.8,29.55,WNW,291,3.3,40.1,95,16.09,,,0.00,VWS V13.01,2013-06-28 23:09:00,
2013-06-28 19:14:00,80.3,78.4,29.54,SW,236,0.0,40.1,94,16.09,,,0.00,VWS V13.01,2013-06-28 23:14:00,
2013-06-28 19:19:00,80.6,78.8,29.54,WNW,292,2.2,40.1,94,16.09,,,0.00,VWS V13.01,2013-06-28 23:19:00,
2013-06-28 19:24:00,80.7,78.8,29.54,West,281,0.0,40.1,94,16.09,,,0.00,VWS V13.01,2013-06-28 23:24:00,
2013-06-28 19:29:00,81.2,79.2,29.55,SSW,211,4.0,40.1,94,16.09,,,0.00,VWS V13.01,2013-06-28 23:29:00,
2013-06-28 19:34:00,81.3,79.3,29.55,WSW,248,0.0,40.1,94,16.09,,,0.00,VWS V13.01,2013-06-28 23:34:00,
2013-06-28 19:39:00,81.3,79.2,29.55,WNW,288,0.0,40.1,93,16.09,,,0.00,VWS V13.01,2013-06-28 23:39:00,
2013-06-28 19:44:00,81.2,79.1,29.55,WNW,284,3.6,40.1,93,16.09,,,0.00,VWS V13.01,2013-06-28 23:44:00,
2013-06-28 19:49:00,81.5,79.7,29.55,WNW,300,3.0,40.1,94,16.09,,,0.00,VWS V13.01,2013-06-28 23:49:00,
2013-06-28 19:54:00,81.0,79.5,29.56,West,271,2.9,40.1,95,16.09,,,0.00,VWS V13.01,2013-06-28 23:54:00,
2013-06-28 19:59:00,80.9,79.5,29.56,West,273,1.7,40.1,95,16.09,,,0.00,VWS V13.01,2013-06-28 23:59:00,
2013-06-28 20:04:00,80.6,79.2,29.56,NW,307,2.7,40.1,96,16.09,,,0.00,VWS V13.01,2013-06-29 00:04:00,
2013-06-28 20:09:00,80.5,79.1,29.56,WNW,295,2.1,40.1,96,16.09,,,0.00,VWS V13.01,2013-06-29 00:09:00,
2013-06-28 20:14:00,80.5,79.2,29.56,West,277,1.0,40.1,96,16.09,,,0.00,VWS V13.01,2013-06-29 00:14:00,
2013-06-28 20:19:00,80.4,79.2,29.56,SSW,207,1.7,40.1,96,16.10,,,0.01,VWS V13.01,2013-06-29 00:19:00,
2013-06-28 20:24:00,80.3,79.1,29.56,West,266,5.2,40.1,96,16.10,,,0.01,VWS V13.01,2013-06-29 00:24:00,
2013-06-28 20:29:00,80.2,78.9,29.56,West,271,4.4,40.1,96,16.10,,,0.01,VWS V13.01,2013-06-29 00:29:00,
2013-06-28 20:34:00,79.9,78.8,29.56,WNW,291,6.6,40.1,96,16.11,,,0.02,VWS V13.01,2013-06-29 00:34:00,
2013-06-28 20:39:00,79.2,78.2,29.56,West,281,6.3,40.1,97,16.11,,,0.02,VWS V13.01,2013-06-29 00:39:00,
2013-06-28 20:44:00,78.1,77.2,29.56,WNW,298,6.3,40.1,97,16.11,,,0.02,VWS V13.01,2013-06-29 00:44:00,
2013-06-28 20:49:00,77.3,76.6,29.56,WNW,294,3.4,40.1,98,16.11,,,0.02,VWS V13.01,2013-06-29 00:49:00,
2013-06-28 20:54:00,76.7,76.0,29.56,WNW,294,3.2,40.1,98,16.11,,,0.02,VWS V13.01,2013-06-29 00:54:00,
2013-06-28 20:59:00,76.2,75.7,29.55,NW,314,6.3,40.1,98,16.11,,,0.02,VWS V13.01,2013-06-29 00:59:00,
2013-06-28 21:04:00,75.8,75.2,29.55,NW,314,2.9,40.1,98,16.11,,,0.02,VWS V13.01,2013-06-29 01:04:00,
2013-06-28 21:09:00,75.5,75.0,29.55,NW,316,1.9,40.1,98,16.11,,,0.02,VWS V13.01,2013-06-29 01:09:00,
2013-06-28 21:14:00,75.5,75.0,29.55,SW,228,2.2,40.1,98,16.11,,,0.02,VWS V13.01,2013-06-29 01:14:00,
2013-06-28 21:19:00,75.1,74.6,29.56,NW,304,5.2,40.1,98,16.11,,,0.02,VWS V13.01,2013-06-29 01:19:00,
2013-06-28 21:24:00,74.7,74.2,29.55,West,277,3.4,40.1,98,16.11,,,0.02,VWS V13.01,2013-06-29 01:24:00,
2013-06-28 21:29:00,74.6,74.1,29.56,NW,305,7.0,40.1,98,16.11,,,0.02,VWS V13.01,2013-06-29 01:29:00,
2013-06-28 21:34:00,74.3,73.6,29.55,West,280,3.2,40.1,98,16.11,,,0.02,VWS V13.01,2013-06-29 01:34:00,
2013-06-28 21:39:00,74.2,73.3,29.56,NW,312,2.9,40.1,97,16.11,,,0.02,VWS V13.01,2013-06-29 01:39:00,
2013-06-28 21:44:00,74.5,73.3,29.56,WNW,290,3.4,40.1,96,16.11,,,0.02,VWS V13.01,2013-06-29 01:44:00,
2013-06-28 21:49:00,74.7,73.4,29.57,WSW,250,2.5,40.1,96,16.11,,,0.02,VWS V13.01,2013-06-29 01:49:00,
2013-06-28 21:54:00,74.8,73.3,29.57,WNW,294,3.1,40.1,95,16.11,,,0.02,VWS V13.01,2013-06-29 01:54:00,
2013-06-28 21:59:00,74.9,73.4,29.56,West,276,3.4,40.1,95,16.11,,,0.02,VWS V13.01,2013-06-29 01:59:00,
2013-06-28 22:04:00,75.1,73.6,29.56,WNW,290,2.9,40.1,95,16.11,,,0.02,VWS V13.01,2013-06-29 02:04:00,
2013-06-28 22:09:00,75.0,73.5,29.56,West,280,2.0,40.1,95,16.11,,,0.02,VWS V13.01,2013-06-29 02:09:00,
2013-06-28 22:14:00,75.1,73.6,29.56,West,264,2.5,40.1,95,16.11,,,0.02,VWS V13.01,2013-06-29 02:14:00,
2013-06-28 22:19:00,75.0,73.5,29.57,SW,219,0.0,40.1,95,16.11,,,0.02,VWS V13.01,2013-06-29 02:19:00,
2013-06-28 22:24:00,75.0,73.7,29.57,West,266,2.5,40.1,96,16.11,,,0.02,VWS V13.01,2013-06-29 02:24:00,
2013-06-28 22:29:00,74.9,73.6,29.57,West,277,0.0,40.1,96,16.11,,,0.02,VWS V13.01,2013-06-29 02:29:00,
2013-06-28 22:34:00,74.9,73.6,29.57,SW,228,3.2,40.1,96,16.11,,,0.02,VWS V13.01,2013-06-29 02:34:00,
2013-06-28 22:38:00,74.6,73.4,29.56,West,264,1.2,40.1,96,16.11,,,0.02,VWS V13.01,2013-06-29 02:38:00,
2013-06-28 22:43:00,74.3,73.2,29.57,WNW,294,3.5,40.1,96,16.11,,,0.02,VWS V13.01,2013-06-29 02:43:00,
2013-06-28 22:48:00,74.4,73.3,29.57,NW,322,1.6,40.1,96,16.11,,,0.02,VWS V13.01,2013-06-29 02:48:00,
2013-06-28 22:53:00,74.5,73.4,29.57,WNW,301,2.4,40.1,96,16.11,,,0.02,VWS V13.01,2013-06-29 02:53:00,
2013-06-28 22:58:00,74.2,73.1,29.57,WSW,238,2.4,40.1,96,16.11,,,0.02,VWS V13.01,2013-06-29 02:58:00,
2013-06-28 23:03:00,74.4,73.3,29.57,SSW,197,1.9,40.1,96,16.11,,,0.02,VWS V13.01,2013-06-29 03:03:00,
2013-06-28 23:08:00,74.3,73.2,29.57,West,269,2.7,40.1,96,16.11,,,0.02,VWS V13.01,2013-06-29 03:08:00,
2013-06-28 23:13:00,74.3,73.1,29.57,WSW,253,3.5,40.1,96,16.11,,,0.02,VWS V13.01,2013-06-29 03:13:00,
2013-06-28 23:18:00,74.7,73.5,29.57,NW,308,2.9,40.1,96,16.11,,,0.02,VWS V13.01,2013-06-29 03:18:00,
2013-06-28 23:23:00,74.6,73.4,29.57,West,281,4.9,40.1,96,16.11,,,0.02,VWS V13.01,2013-06-29 03:23:00,
2013-06-28 23:28:00,74.4,73.2,29.57,WNW,297,2.8,40.1,96,16.11,,,0.02,VWS V13.01,2013-06-29 03:28:00,
2013-06-28 23:33:00,74.6,73.4,29.57,West,271,0.0,40.1,96,16.11,,,0.02,VWS V13.01,2013-06-29 03:33:00,
2013-06-28 23:38:00,74.8,73.6,29.57,NNW,347,0.0,40.1,96,16.11,,,0.02,VWS V13.01,2013-06-29 03:38:00,
2013-06-28 23:43:00,74.9,73.7,29.57,NNW,347,0.0,40.1,96,16.11,,,0.02,VWS V13.01,2013-06-29 03:43:00,
2013-06-28 23:48:00,75.0,73.8,29.57,NW,309,0.0,40.1,96,16.11,,,0.02,VWS V13.01,2013-06-29 03:48:00,
2013-06-28 23:53:00,74.7,73.5,29.58,WNW,298,3.5,40.1,96,16.11,,,0.02,VWS V13.01,2013-06-29 03:53:00,
2013-06-28 23:59:00,74.7,73.6,29.57,NW,308,2.6,40.1,96,16.11,,,0.00,VWS V13.01,2013-06-29 03:59:00,